Time,TemperatureF,DewpointF,PressureIn,WindDirection,WindDirectionDegrees,WindSpeedMPH,WindSpeedGustMPH,Humidity,HourlyPrecipIn,Conditions,Clouds,dailyrainin,SoftwareType,DateUTC
2013-07-11 00:03:00,52.9,48.2,29.97,North,0,0.0,0.0,84,0.00,,,0.00,WUHU216DAVISVP2,2013-07-11 07:03:00,
2013-07-11 00:06:00,53.6,47.9,29.97,WSW,253,0.0,0.0,81,0.00,,,0.00,WUHU216DAVISVP2,2013-07-11 07:06:00,
2013-07-11 00:08:00,52.7,48.0,29.97,North,0,0.0,0.0,84,0.00,,,0.00,WUHU216DAVISVP2,2013-07-11 07:08:00,
2013-07-11 00:13:00,52.5,47.8,29.98,North,0,0.0,0.0,84,0.00,,,0.00,WUHU216DAVISVP2,2013-07-11 07:13:00,
2013-07-11 00:16:00,53.6,47.9,29.97,WSW,253,0.0,0.0,81,0.00,,,0.00,WUHU216DAVISVP2,2013-07-11 07:16:00,
2013-07-11 00:18:00,52.3,47.9,29.98,North,0,0.0,0.0,85,0.00,,,0.00,WUHU216DAVISVP2,2013-07-11 07:18:00,
2013-07-11 00:22:00,53.6,47.9,29.97,WSW,253,0.0,0.0,81,0.00,,,0.00,WUHU216DAVISVP2,2013-07-11 07:22:00,
2013-07-11 00:23:00,52.1,48.0,29.98,North,0,0.0,0.0,86,0.00,,,0.00,WUHU216DAVISVP2,2013-07-11 07:23:00,
2013-07-11 00:28:00,51.9,47.8,29.98,North,0,0.0,0.0,86,0.00,,,0.00,WUHU216DAVISVP2,2013-07-11 07:28:00,
2013-07-11 00:33:00,51.7,47.6,29.98,North,0,0.0,0.0,86,0.00,,,0.00,WUHU216DAVISVP2,2013-07-11 07:33:00,
2013-07-11 00:38:00,53.6,47.9,29.97,WSW,253,0.0,0.0,81,0.00,,,0.00,WUHU216DAVISVP2,2013-07-11 07:38:00,
2013-07-11 00:43:00,53.6,47.9,29.97,WSW,253,0.0,0.0,81,0.00,,,0.00,WUHU216DAVISVP2,2013-07-11 07:43:00,
2013-07-11 00:48:00,53.6,47.9,29.97,WSW,253,0.0,0.0,81,0.00,,,0.00,WUHU216DAVISVP2,2013-07-11 07:48:00,
2013-07-11 00:53:00,51.1,47.4,29.98,North,0,0.0,0.0,87,0.00,,,0.00,WUHU216DAVISVP2,2013-07-11 07:53:00,
2013-07-11 00:58:00,50.9,47.2,29.98,North,0,0.0,0.0,87,0.00,,,0.00,WUHU216DAVISVP2,2013-07-11 07:58:00,
2013-07-11 01:03:00,53.6,47.9,29.97,WSW,253,0.0,0.0,81,0.00,,,0.00,WUHU216DAVISVP2,2013-07-11 08:03:00,
2013-07-11 01:08:00,50.6,47.2,29.98,North,0,0.0,1.0,88,0.00,,,0.00,WUHU216DAVISVP2,2013-07-11 08:08:00,
2013-07-11 01:13:00,50.4,47.3,29.98,North,0,0.0,0.0,89,0.00,,,0.00,WUHU216DAVISVP2,2013-07-11 08:13:00,
2013-07-11 01:18:00,50.3,47.2,29.98,North,0,0.0,0.0,89,0.00,,,0.00,WUHU216DAVISVP2,2013-07-11 08:18:00,
2013-07-11 01:23:00,50.2,47.4,29.98,North,0,0.0,0.0,90,0.00,,,0.00,WUHU216DAVISVP2,2013-07-11 08:23:00,
2013-07-11 01:28:00,50.0,47.2,29.98,North,0,0.0,0.0,90,0.00,,,0.00,WUHU216DAVISVP2,2013-07-11 08:28:00,
2013-07-11 01:33:00,49.9,47.1,29.97,North,0,0.0,0.0,90,0.00,,,0.00,WUHU216DAVISVP2,2013-07-11 08:33:00,
2013-07-11 01:38:00,49.7,46.6,29.97,North,0,0.0,0.0,89,0.00,,,0.00,WUHU216DAVISVP2,2013-07-11 08:38:00,
2013-07-11 01:42:00,53.6,47.9,29.97,WSW,253,0.0,0.0,81,0.00,,,0.00,WUHU216DAVISVP2,2013-07-11 08:42:00,
2013-07-11 01:43:00,49.5,46.7,29.97,North,0,0.0,0.0,90,0.00,,,0.00,WUHU216DAVISVP2,2013-07-11 08:43:00,
2013-07-11 01:48:00,49.3,46.5,29.98,North,0,0.0,0.0,90,0.00,,,0.00,WUHU216DAVISVP2,2013-07-11 08:48:00,
2013-07-11 01:53:00,53.6,47.9,29.97,WSW,253,0.0,0.0,81,0.00,,,0.00,WUHU216DAVISVP2,2013-07-11 08:53:00,
2013-07-11 01:58:00,49.0,46.2,29.98,North,0,0.0,0.0,90,0.00,,,0.00,WUHU216DAVISVP2,2013-07-11 08:58:00,
2013-07-11 02:03:00,48.8,46.3,29.98,North,0,0.0,0.0,91,0.00,,,0.00,WUHU216DAVISVP2,2013-07-11 09:03:00,
2013-07-11 02:08:00,48.7,46.2,29.98,North,0,0.0,0.0,91,0.00,,,0.00,WUHU216DAVISVP2,2013-07-11 09:08:00,
2013-07-11 02:13:00,48.5,46.0,29.98,North,0,0.0,0.0,91,0.00,,,0.00,WUHU216DAVISVP2,2013-07-11 09:13:00,
2013-07-11 02:18:00,48.4,45.9,29.98,North,0,0.0,0.0,91,0.00,,,0.00,WUHU216DAVISVP2,2013-07-11 09:18:00,
2013-07-11 02:23:00,48.2,45.7,29.99,North,0,0.0,0.0,91,0.00,,,0.00,WUHU216DAVISVP2,2013-07-11 09:23:00,
2013-07-11 02:28:00,48.1,45.9,29.99,North,0,0.0,0.0,92,0.00,,,0.00,WUHU216DAVISVP2,2013-07-11 09:28:00,
2013-07-11 02:33:00,47.9,45.7,29.99,North,0,0.0,0.0,92,0.00,,,0.00,WUHU216DAVISVP2,2013-07-11 09:33:00,
2013-07-11 02:38:00,47.8,45.6,29.99,North,0,0.0,0.0,92,0.00,,,0.00,WUHU216DAVISVP2,2013-07-11 09:38:00,
2013-07-11 02:43:00,47.7,45.5,29.99,North,0,0.0,0.0,92,0.00,,,0.00,WUHU216DAVISVP2,2013-07-11 09:43:00,
2013-07-11 02:48:00,47.7,45.5,29.99,North,0,0.0,0.0,92,0.00,,,0.00,WUHU216DAVISVP2,2013-07-11 09:48:00,
2013-07-11 02:53:00,47.6,45.7,29.99,North,0,0.0,0.0,93,0.00,,,0.00,WUHU216DAVISVP2,2013-07-11 09:53:00,
2013-07-11 02:56:00,53.6,47.9,29.97,WSW,253,0.0,0.0,81,0.00,,,0.00,WUHU216DAVISVP2,2013-07-11 09:56:00,
2013-07-11 02:58:00,47.4,45.5,29.99,North,0,0.0,0.0,93,0.00,,,0.00,WUHU216DAVISVP2,2013-07-11 09:58:00,
2013-07-11 03:03:00,47.3,45.4,29.99,North,0,0.0,0.0,93,0.00,,,0.00,WUHU216DAVISVP2,2013-07-11 10:03:00,
2013-07-11 03:08:00,47.2,45.3,29.99,North,0,0.0,0.0,93,0.00,,,0.00,WUHU216DAVISVP2,2013-07-11 10:08:00,
2013-07-11 03:13:00,47.0,45.1,30.00,North,0,0.0,0.0,93,0.00,,,0.00,WUHU216DAVISVP2,2013-07-11 10:13:00,
2013-07-11 03:18:00,46.9,45.0,29.99,North,0,0.0,0.0,93,0.00,,,0.00,WUHU216DAVISVP2,2013-07-11 10:18:00,
2013-07-11 03:23:00,46.9,45.3,30.00,North,0,0.0,0.0,94,0.00,,,0.00,WUHU216DAVISVP2,2013-07-11 10:23:00,
2013-07-11 03:28:00,46.8,44.9,30.00,North,0,0.0,0.0,93,0.00,,,0.00,WUHU216DAVISVP2,2013-07-11 10:28:00,
2013-07-11 03:33:00,46.8,44.9,30.00,North,0,0.0,0.0,93,0.00,,,0.00,WUHU216DAVISVP2,2013-07-11 10:33:00,
2013-07-11 03:38:00,46.7,44.8,30.00,North,0,0.0,0.0,93,0.00,,,0.00,WUHU216DAVISVP2,2013-07-11 10:38:00,
2013-07-11 03:43:00,46.5,44.6,30.00,North,0,0.0,0.0,93,0.00,,,0.00,WUHU216DAVISVP2,2013-07-11 10:43:00,
2013-07-11 03:48:00,46.4,44.5,30.00,North,0,0.0,0.0,93,0.00,,,0.00,WUHU216DAVISVP2,2013-07-11 10:48:00,
2013-07-11 03:53:00,46.3,44.4,30.00,North,0,0.0,0.0,93,0.00,,,0.00,WUHU216DAVISVP2,2013-07-11 10:53:00,
2013-07-11 04:03:00,46.1,44.2,30.00,North,0,0.0,0.0,93,0.00,,,0.00,WUHU216DAVISVP2,2013-07-11 11:03:00,
2013-07-11 04:08:00,45.9,44.2,30.00,WSW,253,0.0,0.0,94,0.00,,,0.00,WUHU216DAVISVP2,2013-07-11 11:08:00,
2013-07-11 04:13:00,45.8,44.1,30.01,WSW,253,0.0,0.0,94,0.00,,,0.00,WUHU216DAVISVP2,2013-07-11 11:13:00,
2013-07-11 04:18:00,45.7,44.0,30.01,WSW,253,0.0,0.0,94,0.00,,,0.00,WUHU216DAVISVP2,2013-07-11 11:18:00,
2013-07-11 04:23:00,45.5,43.8,30.01,WSW,253,0.0,0.0,94,0.00,,,0.00,WUHU216DAVISVP2,2013-07-11 11:23:00,
2013-07-11 04:28:00,45.5,43.8,30.01,West,269,0.0,0.0,94,0.00,,,0.00,WUHU216DAVISVP2,2013-07-11 11:28:00,
2013-07-11 04:33:00,45.4,43.7,30.01,West,269,0.0,0.0,94,0.00,,,0.00,WUHU216DAVISVP2,2013-07-11 11:33:00,
2013-07-11 04:38:00,45.4,43.7,30.01,West,269,0.0,0.0,94,0.00,,,0.00,WUHU216DAVISVP2,2013-07-11 11:38:00,
2013-07-11 04:43:00,45.3,43.6,30.01,West,269,0.0,0.0,94,0.00,,,0.00,WUHU216DAVISVP2,2013-07-11 11:43:00,
2013-07-11 04:48:00,45.2,43.5,30.02,West,269,0.0,0.0,94,0.00,,,0.00,WUHU216DAVISVP2,2013-07-11 11:48:00,
2013-07-11 04:53:00,45.2,43.5,30.02,West,269,0.0,0.0,94,0.00,,,0.00,WUHU216DAVISVP2,2013-07-11 11:53:00,
2013-07-11 04:58:00,45.0,43.3,30.02,West,269,0.0,0.0,94,0.00,,,0.00,WUHU216DAVISVP2,2013-07-11 11:58:00,
2013-07-11 05:03:00,45.0,43.6,30.02,West,269,0.0,0.0,95,0.00,,,0.00,WUHU216DAVISVP2,2013-07-11 12:03:00,
2013-07-11 05:08:00,44.9,43.2,30.02,West,269,0.0,0.0,94,0.00,,,0.00,WUHU216DAVISVP2,2013-07-11 12:08:00,
2013-07-11 05:13:00,44.9,43.5,30.03,West,269,0.0,0.0,95,0.00,,,0.00,WUHU216DAVISVP2,2013-07-11 12:13:00,
2013-07-11 05:18:00,44.8,43.4,30.03,West,269,0.0,0.0,95,0.00,,,0.00,WUHU216DAVISVP2,2013-07-11 12:18:00,
2013-07-11 05:23:00,44.8,43.4,30.03,West,269,0.0,0.0,95,0.00,,,0.00,WUHU216DAVISVP2,2013-07-11 12:23:00,
2013-07-11 05:28:00,44.7,43.3,30.03,West,269,0.0,0.0,95,0.00,,,0.00,WUHU216DAVISVP2,2013-07-11 12:28:00,
2013-07-11 05:33:00,44.5,43.1,30.03,West,269,0.0,0.0,95,0.00,,,0.00,WUHU216DAVISVP2,2013-07-11 12:33:00,
2013-07-11 05:38:00,44.3,42.9,30.03,West,269,0.0,0.0,95,0.00,,,0.00,WUHU216DAVISVP2,2013-07-11 12:38:00,
2013-07-11 05:43:00,44.3,42.9,30.03,West,269,0.0,0.0,95,0.00,,,0.00,WUHU216DAVISVP2,2013-07-11 12:43:00,
2013-07-11 05:48:00,44.2,42.8,30.03,West,269,0.0,0.0,95,0.00,,,0.00,WUHU216DAVISVP2,2013-07-11 12:48:00,
2013-07-11 05:53:00,44.1,42.7,30.04,West,269,0.0,0.0,95,0.00,,,0.00,WUHU216DAVISVP2,2013-07-11 12:53:00,
2013-07-11 05:58:00,44.1,42.7,30.04,West,269,0.0,0.0,95,0.00,,,0.00,WUHU216DAVISVP2,2013-07-11 12:58:00,
2013-07-11 06:03:00,44.0,42.6,30.04,West,269,0.0,0.0,95,0.00,,,0.00,WUHU216DAVISVP2,2013-07-11 13:03:00,
2013-07-11 06:08:00,44.0,42.6,30.04,West,269,0.0,0.0,95,0.00,,,0.00,WUHU216DAVISVP2,2013-07-11 13:08:00,
2013-07-11 06:13:00,44.1,42.7,30.04,West,269,0.0,0.0,95,0.00,,,0.00,WUHU216DAVISVP2,2013-07-11 13:13:00,
2013-07-11 06:19:00,44.3,43.2,30.04,West,269,0.0,0.0,96,0.00,,,0.00,WUHU216DAVISVP2,2013-07-11 13:19:00,
2013-07-11 06:24:00,44.4,43.3,30.04,West,269,0.0,0.0,96,0.00,,,0.00,WUHU216DAVISVP2,2013-07-11 13:24:00,
2013-07-11 06:29:00,44.9,43.8,30.04,West,269,1.0,1.0,96,0.00,,,0.00,WUHU216DAVISVP2,2013-07-11 13:29:00,
2013-07-11 06:34:00,45.2,43.9,30.04,WNW,285,0.0,1.0,95,0.00,,,0.00,WUHU216DAVISVP2,2013-07-11 13:34:00,
2013-07-11 06:39:00,45.4,43.7,30.04,NE,34,0.0,0.0,94,0.00,,,0.00,WUHU216DAVISVP2,2013-07-11 13:39:00,
2013-07-11 06:44:00,45.5,43.8,30.04,NE,34,0.0,0.0,94,0.00,,,0.00,WUHU216DAVISVP2,2013-07-11 13:44:00,
2013-07-11 06:49:00,45.8,44.1,30.05,NE,34,0.0,0.0,94,0.00,,,0.00,WUHU216DAVISVP2,2013-07-11 13:49:00,
2013-07-11 06:54:00,46.1,44.4,30.04,NE,34,0.0,0.0,94,0.00,,,0.00,WUHU216DAVISVP2,2013-07-11 13:54:00,
2013-07-11 06:59:00,46.4,44.7,30.05,NE,34,0.0,0.0,94,0.00,,,0.00,WUHU216DAVISVP2,2013-07-11 13:59:00,
2013-07-11 07:04:00,47.1,45.5,30.05,NE,34,0.0,0.0,94,0.00,,,0.00,WUHU216DAVISVP2,2013-07-11 14:04:00,
2013-07-11 07:09:00,47.7,45.8,30.05,NE,34,0.0,0.0,93,0.00,,,0.00,WUHU216DAVISVP2,2013-07-11 14:09:00,
2013-07-11 07:14:00,48.4,46.2,30.05,NE,34,0.0,1.0,92,0.00,,,0.00,WUHU216DAVISVP2,2013-07-11 14:14:00,
2013-07-11 07:19:00,48.8,46.0,30.05,NE,34,0.0,1.0,90,0.00,,,0.00,WUHU216DAVISVP2,2013-07-11 14:19:00,
2013-07-11 07:24:00,49.2,46.4,30.05,NE,39,0.0,1.0,90,0.00,,,0.00,WUHU216DAVISVP2,2013-07-11 14:24:00,
2013-07-11 07:29:00,49.6,46.5,30.05,NE,38,0.0,2.0,89,0.00,,,0.00,WUHU216DAVISVP2,2013-07-11 14:29:00,
2013-07-11 07:34:00,49.9,46.5,30.05,NE,46,0.0,2.0,88,0.00,,,0.00,WUHU216DAVISVP2,2013-07-11 14:34:00,
2013-07-11 07:39:00,50.4,47.0,30.05,NE,46,0.0,1.0,88,0.00,,,0.00,WUHU216DAVISVP2,2013-07-11 14:39:00,
2013-07-11 07:44:00,50.8,46.7,30.05,NE,46,0.0,0.0,86,0.00,,,0.00,WUHU216DAVISVP2,2013-07-11 14:44:00,
2013-07-11 07:50:00,51.3,47.2,30.05,NNE,20,0.0,1.0,86,0.00,,,0.00,WUHU216DAVISVP2,2013-07-11 14:50:00,
2013-07-11 07:55:00,52.1,47.1,30.05,NE,40,0.0,1.0,83,0.00,,,0.00,WUHU216DAVISVP2,2013-07-11 14:55:00,
2013-07-11 07:59:00,52.7,47.7,30.05,South,169,0.0,1.0,83,0.00,,,0.00,WUHU216DAVISVP2,2013-07-11 14:59:00,
2013-07-11 08:04:00,53.1,47.5,30.05,SSW,200,0.0,1.0,81,0.00,,,0.00,WUHU216DAVISVP2,2013-07-11 15:04:00,
2013-07-11 08:10:00,53.3,48.0,30.05,SSW,200,0.0,1.0,82,0.00,,,0.00,WUHU216DAVISVP2,2013-07-11 15:10:00,
2013-07-11 08:15:00,53.4,47.7,30.05,SSW,200,0.0,1.0,81,0.00,,,0.00,WUHU216DAVISVP2,2013-07-11 15:15:00,
2013-07-11 08:20:00,53.8,47.5,30.04,SSW,192,0.0,1.0,79,0.00,,,0.00,WUHU216DAVISVP2,2013-07-11 15:20:00,
2013-07-11 08:25:00,54.1,47.1,30.04,SSW,213,0.0,2.0,77,0.00,,,0.00,WUHU216DAVISVP2,2013-07-11 15:25:00,
2013-07-11 08:30:00,54.4,47.1,30.04,SSW,213,0.0,2.0,76,0.00,,,0.00,WUHU216DAVISVP2,2013-07-11 15:30:00,
2013-07-11 08:35:00,55.1,47.8,30.04,ESE,123,0.0,1.0,76,0.00,,,0.00,WUHU216DAVISVP2,2013-07-11 15:35:00,
2013-07-11 08:41:00,55.8,47.7,30.04,SSW,213,1.0,3.0,74,0.00,,,0.00,WUHU216DAVISVP2,2013-07-11 15:41:00,
2013-07-11 08:46:00,56.4,48.0,30.04,SW,223,4.0,4.0,73,0.00,,,0.00,WUHU216DAVISVP2,2013-07-11 15:46:00,
2013-07-11 08:51:00,57.0,48.9,30.04,SW,219,0.0,4.0,74,0.00,,,0.00,WUHU216DAVISVP2,2013-07-11 15:51:00,
2013-07-11 08:56:00,57.3,48.1,30.04,WSW,246,0.0,3.0,71,0.00,,,0.00,WUHU216DAVISVP2,2013-07-11 15:56:00,
2013-07-11 09:01:00,57.3,48.1,30.04,SW,218,1.0,3.0,71,0.00,,,0.00,WUHU216DAVISVP2,2013-07-11 16:01:00,
2013-07-11 09:06:00,57.3,48.1,30.04,SW,225,2.0,3.0,71,0.00,,,0.00,WUHU216DAVISVP2,2013-07-11 16:06:00,
2013-07-11 09:11:00,57.3,48.1,30.04,West,277,1.0,3.0,71,0.00,,,0.00,WUHU216DAVISVP2,2013-07-11 16:11:00,
2013-07-11 09:16:00,57.4,48.2,30.04,SSW,211,1.0,3.0,71,0.00,,,0.00,WUHU216DAVISVP2,2013-07-11 16:16:00,
2013-07-11 09:21:00,57.4,48.2,30.04,West,270,0.0,3.0,71,0.00,,,0.00,WUHU216DAVISVP2,2013-07-11 16:21:00,
2013-07-11 09:26:00,57.4,48.6,30.04,West,261,0.0,3.0,72,0.00,,,0.00,WUHU216DAVISVP2,2013-07-11 16:26:00,
2013-07-11 09:32:00,57.5,48.5,30.04,NW,318,1.0,3.0,72,0.00,,,0.00,WUHU216DAVISVP2,2013-07-11 16:32:00,
2013-07-11 09:37:00,57.4,49.2,30.04,NW,324,0.0,5.0,74,0.00,,,0.00,WUHU216DAVISVP2,2013-07-11 16:37:00,
2013-07-11 09:42:00,57.4,48.9,30.04,WSW,257,0.0,5.0,73,0.00,,,0.00,WUHU216DAVISVP2,2013-07-11 16:42:00,
2013-07-11 09:47:00,57.8,48.9,30.04,North,355,1.0,3.0,72,0.00,,,0.00,WUHU216DAVISVP2,2013-07-11 16:47:00,
2013-07-11 09:52:00,58.3,49.4,30.04,NNW,328,0.0,1.0,72,0.00,,,0.00,WUHU216DAVISVP2,2013-07-11 16:52:00,
2013-07-11 09:57:00,58.6,49.4,30.04,WNW,294,0.0,1.0,71,0.00,,,0.00,WUHU216DAVISVP2,2013-07-11 16:57:00,
2013-07-11 10:02:00,58.7,49.7,30.04,WSW,243,1.0,4.0,72,0.00,,,0.00,WUHU216DAVISVP2,2013-07-11 17:02:00,
2013-07-11 10:07:00,58.5,49.5,30.04,West,273,1.0,4.0,72,0.00,,,0.00,WUHU216DAVISVP2,2013-07-11 17:07:00,
2013-07-11 10:12:00,58.2,49.3,30.04,NNW,337,0.0,4.0,72,0.00,,,0.00,WUHU216DAVISVP2,2013-07-11 17:12:00,
2013-07-11 10:18:00,58.1,49.2,30.04,NNW,340,0.0,2.0,72,0.00,,,0.00,WUHU216DAVISVP2,2013-07-11 17:18:00,
2013-07-11 10:23:00,58.4,50.3,30.05,NNW,344,4.0,4.0,74,0.00,,,0.00,WUHU216DAVISVP2,2013-07-11 17:23:00,
2013-07-11 10:28:00,58.4,49.2,30.05,North,350,1.0,4.0,71,0.00,,,0.00,WUHU216DAVISVP2,2013-07-11 17:28:00,
2013-07-11 10:33:00,58.5,49.3,30.05,NNE,24,0.0,3.0,71,0.00,,,0.00,WUHU216DAVISVP2,2013-07-11 17:33:00,
2013-07-11 10:38:00,58.6,49.7,30.05,West,265,0.0,2.0,72,0.00,,,0.00,WUHU216DAVISVP2,2013-07-11 17:38:00,
2013-07-11 10:43:00,59.0,49.4,30.05,NE,46,0.0,4.0,70,0.00,,,0.00,WUHU216DAVISVP2,2013-07-11 17:43:00,
2013-07-11 10:48:00,59.1,49.8,30.04,NE,37,0.0,4.0,71,0.00,,,0.00,WUHU216DAVISVP2,2013-07-11 17:48:00,
2013-07-11 10:53:00,59.4,49.4,30.04,North,355,3.0,6.0,69,0.00,,,0.00,WUHU216DAVISVP2,2013-07-11 17:53:00,
2013-07-11 10:59:00,59.1,49.1,30.04,North,9,2.0,6.0,69,0.00,,,0.00,WUHU216DAVISVP2,2013-07-11 17:59:00,
2013-07-11 11:04:00,59.9,50.6,30.04,SW,217,0.0,5.0,71,0.00,,,0.00,WUHU216DAVISVP2,2013-07-11 18:04:00,
2013-07-11 11:09:00,60.1,49.6,30.05,North,350,6.0,6.0,68,0.00,,,0.00,WUHU216DAVISVP2,2013-07-11 18:09:00,
2013-07-11 11:14:00,59.8,49.7,30.05,NNW,327,2.0,7.0,69,0.00,,,0.00,WUHU216DAVISVP2,2013-07-11 18:14:00,
2013-07-11 11:19:00,59.6,50.7,30.05,NNW,331,1.0,7.0,72,0.00,,,0.00,WUHU216DAVISVP2,2013-07-11 18:19:00,
2013-07-11 11:24:00,59.6,50.3,30.04,WNW,289,0.0,3.0,71,0.00,,,0.00,WUHU216DAVISVP2,2013-07-11 18:24:00,
2013-07-11 11:29:00,59.7,50.0,30.05,NNE,21,0.0,4.0,70,0.00,,,0.00,WUHU216DAVISVP2,2013-07-11 18:29:00,
2013-07-11 11:34:00,60.0,49.9,30.04,North,355,0.0,4.0,69,0.00,,,0.00,WUHU216DAVISVP2,2013-07-11 18:34:00,
2013-07-11 11:39:00,60.1,50.4,30.04,NE,45,2.0,3.0,70,0.00,,,0.00,WUHU216DAVISVP2,2013-07-11 18:39:00,
2013-07-11 11:44:00,60.7,51.7,30.04,NNW,335,2.0,3.0,72,0.00,,,0.00,WUHU216DAVISVP2,2013-07-11 18:44:00,
2013-07-11 11:50:00,60.9,51.2,30.05,NW,315,3.0,8.0,70,0.00,,,0.00,WUHU216DAVISVP2,2013-07-11 18:50:00,
2013-07-11 11:55:00,60.8,51.0,30.05,North,355,0.0,8.0,70,0.00,,,0.00,WUHU216DAVISVP2,2013-07-11 18:55:00,
2013-07-11 12:00:00,60.9,50.4,30.05,South,191,1.0,3.0,68,0.00,,,0.00,WUHU216DAVISVP2,2013-07-11 19:00:00,
2013-07-11 12:05:00,60.8,51.5,30.05,NW,313,0.0,3.0,71,0.00,,,0.00,WUHU216DAVISVP2,2013-07-11 19:05:00,
2013-07-11 12:10:00,60.6,50.9,30.05,North,5,2.0,3.0,70,0.00,,,0.00,WUHU216DAVISVP2,2013-07-11 19:10:00,
2013-07-11 12:15:00,60.7,50.1,30.05,NNW,333,0.0,3.0,68,0.00,,,0.00,WUHU216DAVISVP2,2013-07-11 19:15:00,
2013-07-11 12:21:00,60.9,50.4,30.05,WSW,237,0.0,4.0,68,0.00,,,0.00,WUHU216DAVISVP2,2013-07-11 19:21:00,
2013-07-11 12:26:00,61.2,50.7,30.05,West,265,2.0,4.0,68,0.00,,,0.00,WUHU216DAVISVP2,2013-07-11 19:26:00,
2013-07-11 12:31:00,61.2,51.1,30.05,North,9,5.0,5.0,69,0.00,,,0.00,WUHU216DAVISVP2,2013-07-11 19:31:00,
2013-07-11 12:36:00,61.3,51.0,30.05,SSW,205,1.0,5.0,69,0.00,,,0.00,WUHU216DAVISVP2,2013-07-11 19:36:00,
2013-07-11 12:42:00,61.5,51.4,30.05,WNW,289,0.0,5.0,69,0.00,,,0.00,WUHU216DAVISVP2,2013-07-11 19:42:00,
2013-07-11 12:47:00,61.9,51.0,30.05,North,360,0.0,5.0,67,0.00,,,0.00,WUHU216DAVISVP2,2013-07-11 19:47:00,
2013-07-11 12:52:00,62.1,51.6,30.04,West,277,1.0,4.0,68,0.00,,,0.00,WUHU216DAVISVP2,2013-07-11 19:52:00,
2013-07-11 12:57:00,62.2,50.3,30.04,NNW,338,1.0,4.0,65,0.00,,,0.00,WUHU216DAVISVP2,2013-07-11 19:57:00,
2013-07-11 13:02:00,62.3,51.4,30.05,NNW,339,0.0,5.0,67,0.00,,,0.00,WUHU216DAVISVP2,2013-07-11 20:02:00,
2013-07-11 13:07:00,62.8,50.6,30.05,NNW,338,1.0,5.0,64,0.00,,,0.00,WUHU216DAVISVP2,2013-07-11 20:07:00,
2013-07-11 13:12:00,62.5,50.6,30.05,SW,234,1.0,5.0,65,0.00,,,0.00,WUHU216DAVISVP2,2013-07-11 20:12:00,
2013-07-11 13:17:00,62.1,49.9,30.05,NE,44,0.0,5.0,64,0.00,,,0.00,WUHU216DAVISVP2,2013-07-11 20:17:00,
2013-07-11 13:22:00,62.2,50.9,30.05,North,355,0.0,5.0,66,0.00,,,0.00,WUHU216DAVISVP2,2013-07-11 20:22:00,
2013-07-11 13:28:00,62.6,50.8,30.05,North,355,1.0,9.0,65,0.00,,,0.00,WUHU216DAVISVP2,2013-07-11 20:28:00,
2013-07-11 13:33:00,62.6,50.8,30.04,WNW,290,1.0,9.0,65,0.00,,,0.00,WUHU216DAVISVP2,2013-07-11 20:33:00,
2013-07-11 13:38:00,63.1,50.5,30.04,WNW,300,3.0,5.0,63,0.00,,,0.00,WUHU216DAVISVP2,2013-07-11 20:38:00,
2013-07-11 13:43:00,63.3,51.1,30.04,NNW,345,3.0,5.0,64,0.00,,,0.00,WUHU216DAVISVP2,2013-07-11 20:43:00,
2013-07-11 13:48:00,63.2,50.6,30.04,NW,308,2.0,6.0,63,0.00,,,0.00,WUHU216DAVISVP2,2013-07-11 20:48:00,
2013-07-11 13:53:00,63.0,50.4,30.04,NNW,327,3.0,6.0,63,0.00,,,0.00,WUHU216DAVISVP2,2013-07-11 20:53:00,
2013-07-11 13:58:00,62.8,49.7,30.04,ENE,74,0.0,4.0,62,0.00,,,0.00,WUHU216DAVISVP2,2013-07-11 20:58:00,
2013-07-11 14:03:00,63.2,51.4,30.04,NNE,26,2.0,4.0,65,0.00,,,0.00,WUHU216DAVISVP2,2013-07-11 21:03:00,
2013-07-11 14:08:00,63.8,51.5,30.04,NNW,346,4.0,4.0,64,0.00,,,0.00,WUHU216DAVISVP2,2013-07-11 21:08:00,
2013-07-11 14:13:00,64.2,51.1,30.04,NNE,16,0.0,7.0,62,0.00,,,0.00,WUHU216DAVISVP2,2013-07-11 21:13:00,
2013-07-11 14:18:00,64.1,51.0,30.04,North,355,1.0,7.0,62,0.00,,,0.00,WUHU216DAVISVP2,2013-07-11 21:18:00,
2013-07-11 14:23:00,64.0,50.4,30.04,North,350,2.0,6.0,61,0.00,,,0.00,WUHU216DAVISVP2,2013-07-11 21:23:00,
2013-07-11 14:29:00,64.0,50.4,30.03,ENE,67,0.0,5.0,61,0.00,,,0.00,WUHU216DAVISVP2,2013-07-11 21:29:00,
2013-07-11 14:34:00,64.2,50.2,30.03,NNE,17,2.0,9.0,60,0.00,,,0.00,WUHU216DAVISVP2,2013-07-11 21:34:00,
2013-07-11 14:39:00,64.1,51.0,30.03,North,9,1.0,9.0,62,0.00,,,0.00,WUHU216DAVISVP2,2013-07-11 21:39:00,
2013-07-11 14:44:00,64.3,50.3,30.03,NW,311,1.0,5.0,60,0.00,,,0.00,WUHU216DAVISVP2,2013-07-11 21:44:00,
2013-07-11 14:49:00,64.8,50.7,30.03,NW,322,7.0,7.0,60,0.00,,,0.00,WUHU216DAVISVP2,2013-07-11 21:49:00,
2013-07-11 14:54:00,64.5,50.5,30.03,NE,43,4.0,7.0,60,0.00,,,0.00,WUHU216DAVISVP2,2013-07-11 21:54:00,
2013-07-11 15:00:00,64.4,49.9,30.03,NNE,27,3.0,7.0,59,0.00,,,0.00,WUHU216DAVISVP2,2013-07-11 22:00:00,
2013-07-11 15:05:00,64.5,50.5,30.03,North,5,5.0,6.0,60,0.00,,,0.00,WUHU216DAVISVP2,2013-07-11 22:05:00,
2013-07-11 15:10:00,64.9,50.2,30.02,West,279,2.0,6.0,59,0.00,,,0.00,WUHU216DAVISVP2,2013-07-11 22:10:00,
2013-07-11 15:15:00,65.0,50.5,30.02,West,270,2.0,7.0,59,0.00,,,0.00,WUHU216DAVISVP2,2013-07-11 22:15:00,
2013-07-11 15:20:00,65.4,50.8,30.02,NNE,24,0.0,7.0,59,0.00,,,0.00,WUHU216DAVISVP2,2013-07-11 22:20:00,
2013-07-11 15:25:00,65.8,49.7,30.03,North,5,2.0,5.0,56,0.00,,,0.00,WUHU216DAVISVP2,2013-07-11 22:25:00,
2013-07-11 15:30:00,66.0,50.5,30.02,WNW,290,1.0,5.0,57,0.00,,,0.00,WUHU216DAVISVP2,2013-07-11 22:30:00,
2013-07-11 15:35:00,66.8,50.7,30.02,NNW,340,0.0,3.0,56,0.00,,,0.00,WUHU216DAVISVP2,2013-07-11 22:35:00,
2013-07-11 15:41:00,67.1,50.4,30.02,NNW,338,5.0,5.0,55,0.00,,,0.00,WUHU216DAVISVP2,2013-07-11 22:41:00,
2013-07-11 15:46:00,67.0,49.4,30.02,WNW,302,1.0,5.0,53,0.00,,,0.00,WUHU216DAVISVP2,2013-07-11 22:46:00,
2013-07-11 15:51:00,66.6,48.5,30.01,NE,47,1.0,7.0,52,0.00,,,0.00,WUHU216DAVISVP2,2013-07-11 22:51:00,
2013-07-11 15:56:00,66.6,48.9,30.01,North,355,5.0,7.0,53,0.00,,,0.00,WUHU216DAVISVP2,2013-07-11 22:56:00,
2013-07-11 16:01:00,66.7,48.1,30.01,SSE,167,0.0,6.0,51,0.00,,,0.00,WUHU216DAVISVP2,2013-07-11 23:01:00,
2013-07-11 16:07:00,67.4,49.2,30.00,North,11,0.0,4.0,52,0.00,,,0.00,WUHU216DAVISVP2,2013-07-11 23:07:00,
2013-07-11 16:12:00,67.8,49.6,30.01,NNE,17,4.0,6.0,52,0.00,,,0.00,WUHU216DAVISVP2,2013-07-11 23:12:00,
2013-07-11 16:17:00,67.4,48.7,30.01,NNE,32,5.0,6.0,51,0.00,,,0.00,WUHU216DAVISVP2,2013-07-11 23:17:00,
2013-07-11 16:22:00,67.0,49.4,30.01,NW,304,3.0,6.0,53,0.00,,,0.00,WUHU216DAVISVP2,2013-07-11 23:22:00,
2013-07-11 16:27:00,67.3,49.7,30.01,SW,234,4.0,7.0,53,0.00,,,0.00,WUHU216DAVISVP2,2013-07-11 23:27:00,
2013-07-11 16:32:00,67.5,48.2,30.00,North,360,0.0,7.0,50,0.00,,,0.00,WUHU216DAVISVP2,2013-07-11 23:32:00,
2013-07-11 16:37:00,67.9,49.2,30.00,NE,55,0.0,4.0,51,0.00,,,0.00,WUHU216DAVISVP2,2013-07-11 23:37:00,
2013-07-11 16:42:00,67.7,49.5,30.01,North,5,3.0,6.0,52,0.00,,,0.00,WUHU216DAVISVP2,2013-07-11 23:42:00,
2013-07-11 16:47:00,67.7,49.0,30.00,NE,35,3.0,6.0,51,0.00,,,0.00,WUHU216DAVISVP2,2013-07-11 23:47:00,
2013-07-11 16:52:00,67.4,49.2,30.00,NNW,336,3.0,6.0,52,0.00,,,0.00,WUHU216DAVISVP2,2013-07-11 23:52:00,
2013-07-11 16:58:00,67.1,49.0,30.00,NE,41,2.0,5.0,52,0.00,,,0.00,WUHU216DAVISVP2,2013-07-11 23:58:00,
2013-07-11 17:03:00,67.0,48.9,29.99,NE,36,0.0,6.0,52,0.00,,,0.00,WUHU216DAVISVP2,2013-07-12 00:03:00,
2013-07-11 17:08:00,67.3,48.6,30.00,NE,48,4.0,6.0,51,0.00,,,0.00,WUHU216DAVISVP2,2013-07-12 00:08:00,
2013-07-11 17:13:00,67.4,49.2,29.99,NNW,342,6.0,6.0,52,0.00,,,0.00,WUHU216DAVISVP2,2013-07-12 00:13:00,
2013-07-11 17:18:00,67.2,47.9,30.00,NW,326,3.0,7.0,50,0.00,,,0.00,WUHU216DAVISVP2,2013-07-12 00:18:00,
2013-07-11 17:23:00,67.0,47.7,29.99,NNW,334,1.0,7.0,50,0.00,,,0.00,WUHU216DAVISVP2,2013-07-12 00:23:00,
2013-07-11 17:28:00,67.1,47.9,29.99,NNE,22,1.0,5.0,50,0.00,,,0.00,WUHU216DAVISVP2,2013-07-12 00:28:00,
2013-07-11 17:33:00,67.2,49.6,29.99,NNE,16,3.0,5.0,53,0.00,,,0.00,WUHU216DAVISVP2,2013-07-12 00:33:00,
2013-07-11 17:38:00,67.5,48.8,29.99,NE,38,0.0,5.0,51,0.00,,,0.00,WUHU216DAVISVP2,2013-07-12 00:38:00,
2013-07-11 17:43:00,67.9,49.1,29.99,NE,36,2.0,4.0,51,0.00,,,0.00,WUHU216DAVISVP2,2013-07-12 00:43:00,
2013-07-11 17:48:00,67.9,48.0,29.99,West,277,1.0,4.0,49,0.00,,,0.00,WUHU216DAVISVP2,2013-07-12 00:48:00,
2013-07-11 17:53:00,67.6,47.8,29.99,NNW,338,2.0,6.0,49,0.00,,,0.00,WUHU216DAVISVP2,2013-07-12 00:53:00,
2013-07-11 17:58:00,67.6,47.8,29.99,NNW,344,3.0,6.0,49,0.00,,,0.00,WUHU216DAVISVP2,2013-07-12 00:58:00,
2013-07-11 18:04:00,67.6,48.8,29.99,NNE,23,2.0,6.0,51,0.00,,,0.00,WUHU216DAVISVP2,2013-07-12 01:04:00,
2013-07-11 18:10:00,67.5,48.2,29.98,NW,317,1.0,4.0,50,0.00,,,0.00,WUHU216DAVISVP2,2013-07-12 01:10:00,
2013-07-11 18:15:00,67.6,48.9,29.98,NNE,17,0.0,3.0,51,0.00,,,0.00,WUHU216DAVISVP2,2013-07-12 01:15:00,
2013-07-11 18:20:00,67.6,48.8,29.98,North,355,7.0,7.0,51,0.00,,,0.00,WUHU216DAVISVP2,2013-07-12 01:20:00,
2013-07-11 18:25:00,67.4,48.6,29.98,ENE,61,1.0,7.0,51,0.00,,,0.00,WUHU216DAVISVP2,2013-07-12 01:25:00,
2013-07-11 18:30:00,67.4,49.2,29.98,ENE,61,0.0,7.0,52,0.00,,,0.00,WUHU216DAVISVP2,2013-07-12 01:30:00,
2013-07-11 18:35:00,67.6,49.3,29.98,NNW,348,2.0,3.0,52,0.00,,,0.00,WUHU216DAVISVP2,2013-07-12 01:35:00,
2013-07-11 18:40:00,67.8,49.0,29.98,NE,38,3.0,3.0,51,0.00,,,0.00,WUHU216DAVISVP2,2013-07-12 01:40:00,
2013-07-11 18:45:00,67.3,48.5,29.97,NW,309,0.0,8.0,51,0.00,,,0.00,WUHU216DAVISVP2,2013-07-12 01:45:00,
2013-07-11 18:50:00,67.2,49.0,29.98,NNW,348,3.0,8.0,52,0.00,,,0.00,WUHU216DAVISVP2,2013-07-12 01:50:00,
2013-07-11 18:55:00,67.2,48.0,29.97,NE,35,4.0,6.0,50,0.00,,,0.00,WUHU216DAVISVP2,2013-07-12 01:55:00,
2013-07-11 19:01:00,67.0,48.9,29.98,North,355,10.0,10.0,52,0.00,,,0.00,WUHU216DAVISVP2,2013-07-12 02:01:00,
2013-07-11 19:06:00,66.5,48.4,29.98,North,360,4.0,10.0,52,0.00,,,0.00,WUHU216DAVISVP2,2013-07-12 02:06:00,
2013-07-11 19:11:00,66.1,48.6,29.97,NNW,335,5.0,5.0,53,0.00,,,0.00,WUHU216DAVISVP2,2013-07-12 02:11:00,
2013-07-11 19:16:00,66.1,49.1,29.97,NNE,30,2.0,5.0,54,0.00,,,0.00,WUHU216DAVISVP2,2013-07-12 02:16:00,
2013-07-11 19:21:00,66.2,49.2,29.97,NNE,19,2.0,4.0,54,0.00,,,0.00,WUHU216DAVISVP2,2013-07-12 02:21:00,
2013-07-11 19:26:00,66.3,48.7,29.97,NE,47,0.0,6.0,53,0.00,,,0.00,WUHU216DAVISVP2,2013-07-12 02:26:00,
2013-07-11 19:31:00,66.3,48.7,29.97,NNW,329,7.0,7.0,53,0.00,,,0.00,WUHU216DAVISVP2,2013-07-12 02:31:00,
2013-07-11 19:36:00,66.1,49.1,29.97,NNE,24,1.0,7.0,54,0.00,,,0.00,WUHU216DAVISVP2,2013-07-12 02:36:00,
2013-07-11 19:41:00,65.8,48.8,29.97,North,351,6.0,7.0,54,0.00,,,0.00,WUHU216DAVISVP2,2013-07-12 02:41:00,
2013-07-11 19:46:00,65.5,48.5,29.97,North,10,0.0,7.0,54,0.00,,,0.00,WUHU216DAVISVP2,2013-07-12 02:46:00,
2013-07-11 19:51:00,65.2,48.6,29.97,NE,40,4.0,4.0,55,0.00,,,0.00,WUHU216DAVISVP2,2013-07-12 02:51:00,
2013-07-11 19:56:00,65.0,48.9,29.97,NNW,328,0.0,4.0,56,0.00,,,0.00,WUHU216DAVISVP2,2013-07-12 02:56:00,
2013-07-11 20:01:00,64.9,49.4,29.97,NW,315,0.0,3.0,57,0.00,,,0.00,WUHU216DAVISVP2,2013-07-12 03:01:00,
2013-07-11 20:06:00,64.6,48.7,29.97,NNW,331,0.0,2.0,56,0.00,,,0.00,WUHU216DAVISVP2,2013-07-12 03:06:00,
2013-07-11 20:12:00,64.4,49.0,29.97,North,5,0.0,3.0,57,0.00,,,0.00,WUHU216DAVISVP2,2013-07-12 03:12:00,
2013-07-11 20:17:00,64.2,48.8,29.97,West,279,0.0,3.0,57,0.00,,,0.00,WUHU216DAVISVP2,2013-07-12 03:17:00,
2013-07-11 20:22:00,64.1,48.5,29.97,NNW,327,0.0,2.0,57,0.00,,,0.00,WUHU216DAVISVP2,2013-07-12 03:22:00,
2013-07-11 20:27:00,63.9,48.8,29.97,NNE,13,0.0,2.0,58,0.00,,,0.00,WUHU216DAVISVP2,2013-07-12 03:27:00,
2013-07-11 20:32:00,63.8,48.9,29.97,NNE,13,0.0,2.0,58,0.00,,,0.00,WUHU216DAVISVP2,2013-07-12 03:32:00,
2013-07-11 20:37:00,63.7,49.7,29.97,NNE,13,0.0,1.0,60,0.00,,,0.00,WUHU216DAVISVP2,2013-07-12 03:37:00,
2013-07-11 20:42:00,63.4,49.0,29.97,East,81,1.0,1.0,59,0.00,,,0.00,WUHU216DAVISVP2,2013-07-12 03:42:00,
2013-07-11 20:48:00,63.3,48.9,29.97,NNE,24,0.0,2.0,59,0.00,,,0.00,WUHU216DAVISVP2,2013-07-12 03:48:00,
2013-07-11 20:52:00,63.2,49.7,29.97,NE,42,0.0,2.0,61,0.00,,,0.00,WUHU216DAVISVP2,2013-07-12 03:52:00,
2013-07-11 20:58:00,63.1,49.1,29.97,East,91,1.0,1.0,60,0.00,,,0.00,WUHU216DAVISVP2,2013-07-12 03:58:00,
2013-07-11 21:01:00,63.0,49.5,29.97,NE,50,0.0,1.0,61,0.00,,,0.00,WUHU216DAVISVP2,2013-07-12 04:01:00,
2013-07-11 21:06:00,62.7,49.6,29.97,NE,50,0.0,1.0,62,0.00,,,0.00,WUHU216DAVISVP2,2013-07-12 04:06:00,
2013-07-11 21:11:00,62.5,49.5,29.97,NE,50,0.0,0.0,62,0.00,,,0.00,WUHU216DAVISVP2,2013-07-12 04:11:00,
2013-07-11 21:16:00,62.1,49.9,29.97,NE,50,0.0,0.0,64,0.00,,,0.00,WUHU216DAVISVP2,2013-07-12 04:16:00,
2013-07-11 21:21:00,61.6,49.9,29.97,NE,50,0.0,0.0,65,0.00,,,0.00,WUHU216DAVISVP2,2013-07-12 04:21:00,
2013-07-11 21:26:00,61.2,49.9,29.97,NE,50,0.0,0.0,66,0.00,,,0.00,WUHU216DAVISVP2,2013-07-12 04:26:00,
2013-07-11 21:31:00,60.8,49.9,29.97,NE,50,0.0,0.0,67,0.00,,,0.00,WUHU216DAVISVP2,2013-07-12 04:31:00,
2013-07-11 21:36:00,60.4,49.9,29.98,NE,50,0.0,0.0,68,0.00,,,0.00,WUHU216DAVISVP2,2013-07-12 04:36:00,
2013-07-11 21:41:00,59.9,49.8,29.98,NE,50,0.0,0.0,69,0.00,,,0.00,WUHU216DAVISVP2,2013-07-12 04:41:00,
2013-07-11 21:46:00,59.6,49.9,29.98,NE,50,0.0,0.0,70,0.00,,,0.00,WUHU216DAVISVP2,2013-07-12 04:46:00,
2013-07-11 21:51:00,59.3,49.9,29.98,NE,50,0.0,0.0,71,0.00,,,0.00,WUHU216DAVISVP2,2013-07-12 04:51:00,
2013-07-11 21:56:00,59.0,50.5,29.98,NE,50,0.0,0.0,73,0.00,,,0.00,WUHU216DAVISVP2,2013-07-12 04:56:00,
2013-07-11 22:01:00,58.8,50.6,29.98,NE,50,0.0,0.0,74,0.00,,,0.00,WUHU216DAVISVP2,2013-07-12 05:01:00,
2013-07-11 22:06:00,58.5,50.3,29.98,NE,50,0.0,0.0,74,0.00,,,0.00,WUHU216DAVISVP2,2013-07-12 05:06:00,
2013-07-11 22:11:00,58.2,50.3,29.98,NE,50,0.0,0.0,75,0.00,,,0.00,WUHU216DAVISVP2,2013-07-12 05:11:00,
2013-07-11 22:16:00,58.0,50.6,29.98,NE,50,0.0,0.0,76,0.00,,,0.00,WUHU216DAVISVP2,2013-07-12 05:16:00,
2013-07-11 22:21:00,57.7,50.3,29.98,NE,50,0.0,0.0,76,0.00,,,0.00,WUHU216DAVISVP2,2013-07-12 05:21:00,
2013-07-11 22:26:00,57.5,50.4,29.98,NE,50,0.0,0.0,77,0.00,,,0.00,WUHU216DAVISVP2,2013-07-12 05:26:00,
2013-07-11 22:31:00,57.2,50.4,29.98,NE,50,0.0,0.0,78,0.00,,,0.00,WUHU216DAVISVP2,2013-07-12 05:31:00,
2013-07-11 22:36:00,57.0,50.6,29.98,NE,50,0.0,0.0,79,0.00,,,0.00,WUHU216DAVISVP2,2013-07-12 05:36:00,
2013-07-11 22:41:00,56.7,50.3,29.98,NE,50,0.0,0.0,79,0.00,,,0.00,WUHU216DAVISVP2,2013-07-12 05:41:00,
2013-07-11 22:46:00,56.4,50.7,29.98,NE,50,0.0,0.0,81,0.00,,,0.00,WUHU216DAVISVP2,2013-07-12 05:46:00,
2013-07-11 22:51:00,56.1,50.7,29.98,NE,50,0.0,0.0,82,0.00,,,0.00,WUHU216DAVISVP2,2013-07-12 05:51:00,
2013-07-11 22:56:00,55.9,50.5,29.98,NE,50,0.0,1.0,82,0.00,,,0.00,WUHU216DAVISVP2,2013-07-12 05:56:00,
2013-07-11 23:01:00,55.8,50.1,29.98,NE,50,0.0,1.0,81,0.00,,,0.00,WUHU216DAVISVP2,2013-07-12 06:01:00,
2013-07-11 23:06:00,55.7,50.0,29.98,NE,50,0.0,0.0,81,0.00,,,0.00,WUHU216DAVISVP2,2013-07-12 06:06:00,
2013-07-11 23:11:00,55.6,50.2,29.98,NE,50,0.0,0.0,82,0.00,,,0.00,WUHU216DAVISVP2,2013-07-12 06:11:00,
2013-07-11 23:16:00,55.4,50.3,29.98,NE,50,0.0,0.0,83,0.00,,,0.00,WUHU216DAVISVP2,2013-07-12 06:16:00,
2013-07-11 23:21:00,55.1,50.0,29.98,NE,50,0.0,0.0,83,0.00,,,0.00,WUHU216DAVISVP2,2013-07-12 06:21:00,
2013-07-11 23:26:00,55.0,49.9,29.98,NE,50,0.0,0.0,83,0.00,,,0.00,WUHU216DAVISVP2,2013-07-12 06:26:00,
2013-07-11 23:31:00,54.8,50.1,29.99,NE,50,0.0,0.0,84,0.00,,,0.00,WUHU216DAVISVP2,2013-07-12 06:31:00,
2013-07-11 23:36:00,54.6,49.9,29.99,NE,50,0.0,0.0,84,0.00,,,0.00,WUHU216DAVISVP2,2013-07-12 06:36:00,
2013-07-11 23:41:00,54.4,50.0,29.99,NE,50,0.0,0.0,85,0.00,,,0.00,WUHU216DAVISVP2,2013-07-12 06:41:00,
2013-07-11 23:46:00,54.2,49.8,29.99,NE,50,0.0,0.0,85,0.00,,,0.00,WUHU216DAVISVP2,2013-07-12 06:46:00,
2013-07-11 23:51:00,54.0,49.6,29.99,NE,50,0.0,0.0,85,0.00,,,0.00,WUHU216DAVISVP2,2013-07-12 06:51:00,
2013-07-11 23:56:00,53.8,49.7,29.99,NE,50,0.0,0.0,86,0.00,,,0.00,WUHU216DAVISVP2,2013-07-12 06:56:00,